Temp
28 22 16 22 23 25 22 19 16 22 28 25 23 24 27 33 34 33 33 31 31 33 37 39 41 44 47 49 50 51 51 53 54 52 53 55 58 63 63 64 64 63 62 61
20 14 26 27 27 24 22 17 17 23 28 26 24 23 28 31 31 28 29 28 30 31 33 36 38 40 40 40 45 49 50 52 53 53 55 57 61 63 63 63 62 62 60 61
14 22 30 26 24 23 22 18 19 19 25 26 22 17 24 30 27 29 30 30 31 30 30 32 34 36 38 38 39 45 49 51 53 54 56 58 60 62 60 59 59 60 60 58
15 24 26 22 19 24 15 25 24 21 16 9 21 6 20 25 24 25 27 28 28 29 30 31 32 33 35 38 40 39 46 49 52 54 54 56 57 57 59 59 59 59 59 59
17 18 20 16 21 27 16 25 21 19 14 12 12 8 16 20 18 19 24 27 27 28 29 29 30 32 34 37 37 37 42 47 49 52 53 54 57 59 58 59 57 57 57 57
22 27 20 20 27 27 25 16 18 6 2 -2 8 10 14 17 16 18 23 24 25 26 27 28 30 31 32 36 37 35 37 42 47 51 53 55 57 58 56 56 56 55 55 54
17 18 26 28 11 12 10 3 -5 -6 -8 -4 15 14 16 17 20 19 19 21 23 25 24 25 26 27 29 33 36 36 37 39 44 49 52 54 57 59 58 55 55 54 53 52
0 4 17 27 21 11 5 6 4 -2 -7 5 17 3 13 20 23 25 24 22 23 22 23 24 25 26 27 30 33 34 35 38 42 45 51 55 58 59 57 56 55 54 53 52
5 4 23 27 26 19 4 7 16 10 -11 -4 4 14 21 24 23 22 20 21 19 20 22 22 24 25 26 28 30 32 33 35 39 44 51 54 56 57 56 55 55 54 54 52
14 3 20 22 23 20 15 21 5 8 -3 -8 1 6 7 12 13 17 14 17 17 19 20 21 22 23 25 27 29 31 33 34 36 39 50 53 55 55 56 55 54 53 53 51
12 12 7 14 7 8 6 6 14 16 7 -2 -3 2 8 7 11 13 14 17 16 17 18 19 21 22 23 24 26 28 30 31 33 36 42 49 50 53 54 53 53 51 48 48
18 13 -4 4 12 16 11 7 15 9 5 7 7 8 9 10 14 17 15 16 17 18 18 19 19 20 21 22 23 25 28 29 32 34 37 40 41 42 46 50 48 48 47 47
17 9 -5 1 9 13 4 7 12 16 13 6 4 5 13 11 16 16 14 15 15 18 17 18 18 18 19 21 22 22 25 27 31 33 34 35 36 36 37 37 39 45 47 45
23 12 2 3 9 9 1 5 11 12 6 1 7 11 18 17 14 14 13 15 15 15 15 16 16 17 18 20 21 21 23 26 29 31 32 32 33 34 34 35 35 36 39 41
22 13 8 13 13 9 6 5 8 7 10 7 11 5 15 16 13 14 15 14 14 13 13 14 14 15 17 18 20 21 21 23 27 28 28 28 31 33 34 34 34 35 35 35
19 14 11 4 7 6 -5 5 6 5 10 11 11 11 14 14 14 14 13 13 12 12 12 13 13 14 15 16 19 19 20 21 24 24 26 28 29 30 31 32 33 34 34 34
16 13 7 4 4 1 -0 0 -5 6 7 8 9 15 11 13 10 12 12 12 12 11 11 11 12 13 14 15 18 18 19 21 21 22 24 25 27 26 28 30 31 31 32 33
16 14 12 2 2 -10 7 -4 2 8 13 12 13 15 12 11 10 12 12 11 11 11 11 11 11 12 13 15 17 18 19 19 19 20 21 22 24 25 26 27 28 29 31 31
22 16 8 3 -7 4 13 7 7 9 12 11 11 11 10 10 12 12 10 8 8 9 11 11 12 12 13 13 16 17 16 17 18 18 18 19 20 21 23 23 24 26 28 29
16 19 11 -5 -4 -12 7 6 8 4 4 13 7 6 10 16 11 8 8 7 9 10 10 11 12 13 12 12 17 16 14 14 14 17 17 18 19 19 19 20 21 23 27 26
8 11 5 -2 2 2 13 14 17 4 8 9 5 8 13 14 14 8 -2 3 1 3 8 12 12 11 10 13 15 13 12 10 12 16 17 17 18 18 18 19 20 21 22 23
5 5 -2 3 -1 -3 15 17 11 14 4 3 3 6 11 11 8 7 8 5 5 5 7 8 7 9 9 11 12 10 8 10 11 14 15 14 14 18 18 17 18 19 20 20
10 14 12 10 9 17 16 15 13 4 11 7 11 13 16 14 13 14 15 14 15 12 10 10 8 9 8 7 8 8 6 8 9 11 10 11 11 14 16 16 16 19 18 20
17 17 15 13 16 14 13 17 14 12 17 20 20 19 19 17 16 15 15 16 15 15 12 11 9 8 7 7 8 5 6 6 6 7 9 11 10 12 13 16 18 18 18 19
20 18 16 17 20 17 18 21 23 18 14 19 19 18 19 18 15 14 15 16 16 15 12 9 8 8 7 6 5 2 3 2 7 6 8 7 9 7 10 13 14 18 21 26
21 18 17 16 21 21 23 23 25 23 22 20 19 18 19 19 17 16 15 15 14 13 10 7 5 5 4 2 1 -2 -6 -3 -0 6 6 5 5 5 8 8 11 21 25 29
MSLP
1019.18 1019.65 1019.45 1018.72 1018.80 1018.40 1018.48 1017.93 1016.82 1015.41 1014.83 1015.48 1013.61 1012.51 1009.84 1009.98 1010.21 1009.18 1009.00 1008.76 1008.43 1007.91 1007.36 1006.93 1006.29 1005.58 1004.65 1003.95 1003.62 1003.39 1003.26 1002.63 1002.61 1002.17 1001.73 1001.47 1001.00 1000.47 1000.32 1000.61 1001.20 1001.87 1003.02 1003.62
1019.99 1018.96 1018.06 1018.07 1017.93 1018.03 1017.86 1017.11 1015.84 1015.19 1014.55 1014.40 1013.10 1011.17 1009.53 1009.29 1009.01 1009.06 1009.09 1009.10 1008.83 1008.05 1007.32 1006.96 1006.35 1005.74 1005.04 1004.39 1003.33 1002.58 1002.16 1001.80 1001.40 1000.98 1000.49 1000.45 999.81 999.35 999.48 1000.05 1000.55 1001.27 1002.32 1003.18
1020.00 1017.67 1017.70 1017.91 1017.44 1017.44 1016.90 1016.57 1015.49 1015.25 1014.18 1013.85 1013.02 1010.86 1008.46 1008.27 1008.48 1008.73 1009.04 1009.15 1008.97 1008.49 1007.45 1006.69 1006.06 1005.62 1004.72 1003.84 1003.13 1002.13 1001.27 1000.79 1000.34 999.91 999.70 999.26 999.15 998.79 998.95 999.19 999.77 1000.51 1001.54 1002.77
1019.52 1018.20 1017.67 1017.38 1017.20 1017.17 1016.45 1015.84 1015.66 1015.39 1015.20 1014.33 1013.93 1012.65 1007.17 1007.87 1008.35 1008.75 1008.96 1009.02 1008.77 1008.35 1007.50 1006.74 1005.90 1004.91 1004.46 1003.35 1002.50 1001.80 1000.59 999.87 999.54 999.10 998.76 998.20 998.19 997.94 997.61 998.14 998.97 999.81 1000.85 1001.84
1018.27 1017.80 1017.61 1017.37 1016.54 1016.68 1016.41 1016.19 1016.18 1015.96 1015.58 1015.21 1013.98 1013.91 1008.84 1008.70 1008.94 1009.48 1009.43 1009.14 1008.88 1008.47 1007.72 1006.69 1005.81 1004.69 1003.65 1002.73 1001.63 1000.92 999.89 998.75 998.44 998.08 997.65 997.29 997.26 997.08 997.42 997.56 998.58 999.52 1000.38 1001.64
1018.39 1017.83 1017.57 1016.63 1016.22 1016.57 1016.82 1017.04 1016.72 1017.03 1016.92 1016.26 1013.74 1013.13 1008.59 1009.17 1009.63 1009.61 1009.47 1009.25 1008.76 1008.22 1007.56 1006.75 1005.74 1004.61 1003.27 1001.93 1000.80 1000.11 999.29 997.95 997.42 997.03 996.54 996.25 996.08 996.26 996.99 996.43 997.96 998.81 999.91 1000.76
1019.18 1017.50 1016.44 1016.24 1016.98 1017.33 1017.85 1018.68 1018.81 1018.62 1018.18 1016.44 1013.92 1012.85 1009.90 1009.45 1009.57 1009.66 1009.34 1008.93 1008.54 1008.09 1007.44 1006.46 1005.29 1004.03 1002.75 1001.31 1000.09 999.26 998.47 997.09 996.58 996.08 995.51 995.11 995.15 995.35 995.91 996.35 996.95 998.28 999.33 1000.24
1020.46 1018.03 1016.83 1016.24 1016.66 1017.59 1018.37 1019.22 1019.39 1018.98 1018.45 1015.65 1013.90 1012.11 1009.57 1009.37 1009.52 1009.64 1009.54 1009.01 1008.53 1007.78 1007.03 1006.16 1005.09 1003.85 1002.51 1001.18 999.79 998.75 997.92 996.71 995.95 995.41 994.52 994.02 994.22 994.73 995.56 996.11 996.73 997.76 998.77 999.68
1020.44 1018.77 1016.80 1016.50 1016.71 1017.32 1018.56 1018.70 1017.72 1017.84 1017.61 1017.00 1013.78 1011.54 1009.67 1009.55 1009.51 1009.66 1009.64 1009.11 1008.57 1008.09 1007.11 1006.04 1004.86 1003.68 1002.44 1000.95 999.57 998.42 997.40 996.36 995.45 994.62 993.69 993.16 993.46 994.30 995.15 995.90 996.80 997.45 998.61 999.39
1019.59 1019.02 1017.14 1016.91 1017.00 1016.92 1017.36 1017.51 1017.53 1017.33 1017.24 1016.46 1013.98 1012.23 1011.04 1010.52 1010.57 1010.45 1010.11 1009.75 1009.15 1008.32 1007.20 1006.12 1005.01 1003.73 1002.41 1001.04 999.57 998.21 996.99 996.08 995.10 994.17 993.07 992.28 992.92 994.09 994.99 995.85 996.54 997.31 998.56 999.30
1019.46 1019.51 1018.42 1017.97 1017.91 1017.39 1017.77 1017.56 1017.36 1016.51 1016.47 1016.20 1014.48 1012.21 1011.12 1011.51 1011.56 1011.05 1010.61 1010.13 1009.43 1008.49 1007.58 1006.51 1005.30 1004.01 1002.71 1001.28 999.86 998.38 997.13 996.22 995.09 994.01 992.96 992.07 993.03 994.09 994.85 995.64 996.62 997.62 998.40 999.33
1018.39 1018.90 1019.04 1018.28 1017.46 1017.75 1017.69 1017.64 1017.13 1016.40 1016.37 1015.93 1015.08 1011.52 1011.02 1011.33 1011.47 1011.47 1010.97 1010.41 1009.75 1009.01 1008.08 1006.92 1005.72 1004.48 1003.16 1001.83 1000.41 998.93 997.88 996.57 995.65 994.59 993.45 992.91 993.47 994.52 995.22 995.87 996.90 997.64 998.59 999.58
1017.89 1018.54 1019.20 1018.32 1018.45 1018.13 1018.11 1017.75 1017.35 1016.86 1016.41 1014.86 1014.92 1011.84 1010.76 1011.34 1011.40 1011.57 1011.40 1010.85 1010.19 1009.39 1008.43 1007.34 1006.26 1005.07 1003.84 1002.57 1001.23 999.95 998.79 997.57 996.60 995.43 994.63 994.95 995.00 996.03 996.71 997.03 997.63 997.90 998.63 999.70
1016.83 1017.49 1018.27 1018.30 1017.94 1018.41 1018.61 1018.01 1017.49 1017.48 1016.59 1014.82 1013.17 1011.80 1010.67 1011.30 1011.63 1011.76 1011.76 1011.39 1010.91 1010.21 1009.24 1008.17 1007.13 1006.14 1004.95 1003.45 1002.33 1001.30 1000.20 999.06 997.99 996.83 996.16 996.72 996.66 997.43 997.77 998.02 998.39 999.01 999.82 1000.28
1016.08 1016.36 1017.15 1017.16 1017.57 1018.38 1018.22 1017.78 1016.74 1017.02 1015.61 1014.90 1012.06 1012.36 1011.44 1011.98 1012.30 1012.43 1012.37 1011.97 1011.50 1010.89 1010.06 1009.12 1008.22 1007.33 1006.29 1005.04 1003.67 1002.74 1001.55 1000.67 999.37 998.52 998.17 998.41 998.45 998.69 998.68 999.09 999.62 1000.07 1000.84 1001.09
1015.30 1015.38 1016.26 1017.04 1017.18 1018.09 1018.32 1016.89 1016.13 1015.88 1014.97 1014.17 1013.25 1012.40 1011.90 1012.40 1012.71 1012.90 1012.92 1012.63 1012.30 1011.93 1011.32 1010.51 1009.50 1008.30 1007.39 1006.94 1005.50 1004.34 1003.12 1001.97 1001.05 1000.29 1000.18 1000.29 1000.20 999.84 1000.14 1000.46 1000.99 1001.42 1002.12 1002.42
1015.14 1015.28 1016.11 1016.73 1017.31 1018.12 1017.77 1016.05 1015.97 1014.86 1014.20 1013.53 1013.20 1012.54 1012.56 1012.86 1013.30 1013.54 1013.46 1013.29 1013.19 1013.06 1012.59 1011.76 1011.01 1010.04 1008.92 1007.99 1007.95 1006.34 1005.20 1003.73 1002.92 1002.04 1002.00 1001.36 1001.08 1001.24 1001.74 1002.48 1002.43 1002.97 1003.45 1003.50
1013.84 1014.38 1015.37 1016.77 1017.48 1017.60 1015.43 1015.17 1015.05 1014.41 1013.57 1013.30 1012.98 1012.64 1013.08 1013.34 1013.65 1014.01 1014.12 1014.15 1014.00 1013.86 1013.55 1012.91 1012.19 1011.33 1010.33 1009.33 1008.08 1007.45 1006.52 1005.53 1004.36 1004.92 1004.31 1003.52 1003.45 1003.59 1003.66 1003.51 1003.89 1004.23 1004.38 1004.68
1012.70 1013.75 1014.97 1016.49 1017.29 1016.34 1014.53 1014.60 1014.47 1013.97 1013.70 1013.17 1013.23 1013.08 1013.41 1013.54 1014.07 1014.35 1014.65 1014.77 1014.71 1014.56 1014.39 1014.02 1013.15 1012.42 1011.46 1010.49 1009.81 1009.35 1008.35 1007.59 1006.83 1005.93 1005.51 1005.64 1005.42 1004.89 1004.84 1005.09 1005.30 1005.31 1005.42 1005.92
1013.19 1013.37 1014.71 1016.40 1016.85 1016.41 1014.13 1013.71 1013.58 1013.59 1013.39 1013.25 1013.56 1013.60 1013.75 1013.83 1014.25 1014.79 1015.09 1015.21 1015.13 1014.87 1014.64 1014.26 1013.79 1013.16 1012.60 1011.94 1010.83 1010.00 1009.86 1009.38 1008.91 1008.37 1008.09 1007.63 1007.24 1007.07 1007.10 1007.29 1007.22 1007.29 1007.10 1007.27
1014.07 1014.06 1014.67 1015.54 1016.07 1014.93 1013.40 1013.13 1013.28 1013.61 1013.79 1013.13 1013.34 1013.42 1013.74 1013.98 1014.24 1014.79 1014.99 1015.42 1015.57 1015.28 1014.88 1014.43 1014.00 1013.85 1013.58 1012.86 1012.28 1011.94 1011.52 1010.94 1011.04 1010.34 1009.74 1009.09 1008.62 1008.28 1008.37 1008.42 1008.46 1008.41 1008.29 1008.14
1014.38 1014.31 1014.67 1015.16 1015.30 1013.97 1012.40 1012.81 1012.99 1012.73 1012.88 1013.24 1013.11 1013.12 1013.31 1013.46 1014.02 1014.59 1014.80 1015.03 1015.28 1015.24 1015.06 1014.96 1014.76 1014.48 1014.07 1013.50 1013.04 1013.04 1012.89 1012.90 1011.98 1011.16 1010.58 1010.25 1010.09 1009.99 1009.58 1009.27 1009.27 1009.02 1008.99 1008.87
1013.92 1013.49 1013.51 1014.04 1012.86 1011.77 1011.68 1011.46 1011.43 1011.67 1012.44 1012.51 1012.48 1012.17 1012.59 1013.10 1013.65 1014.01 1014.27 1014.55 1014.63 1014.84 1015.10 1015.23 1015.12 1014.97 1014.88 1014.69 1014.37 1014.12 1014.15 1013.63 1012.99 1012.34 1012.00 1011.91 1011.49 1010.97 1010.71 1010.38 1010.20 1010.01 1009.89 1009.54
1013.02 1012.76 1012.75 1012.67 1011.03 1011.13 1010.76 1010.58 1010.94 1011.33 1011.30 1011.18 1011.37 1011.52 1011.97 1012.49 1013.03 1013.63 1013.99 1014.28 1014.51 1014.87 1015.24 1015.43 1015.37 1015.38 1015.38 1015.31 1015.25 1015.33 1015.11 1014.48 1013.71 1013.30 1013.10 1012.77 1012.40 1012.18 1011.89 1011.50 1011.19 1010.95 1010.73 1010.40
1012.39 1012.32 1011.77 1011.46 1010.58 1010.25 1010.11 1010.03 1009.92 1010.37 1010.54 1010.65 1010.78 1011.12 1011.51 1012.11 1012.80 1013.24 1013.78 1014.13 1014.51 1014.95 1015.40 1015.74 1015.96 1016.13 1016.11 1015.89 1015.64 1015.55 1015.42 1015.19 1014.71 1014.39 1014.13 1013.90 1013.66 1013.34 1012.83 1012.34 1011.99 1011.52 1011.22 1010.69
1011.44 1011.15 1011.34 1010.86 1010.39 1010.26 1009.81 1009.45 1009.45 1009.91 1010.00 1010.18 1010.43 1010.87 1011.18 1011.66 1012.31 1012.98 1013.54 1014.05 1014.59 1015.09 1015.62 1016.10 1016.50 1016.71 1016.74 1016.77 1016.72 1016.71 1016.59 1016.16 1015.63 1015.21 1015.01 1014.92 1014.60 1014.27 1013.89 1013.53 1012.92 1012.26 1011.90 1011.35
Wind_Speed
1 2 8 14 15 16 12 16 21 24 21 17 24 25 31 21 16 22 11 6 9 11 13 15 14 15 16 18 20 22 20 21 15 12 9 8 11 11 11 11 14 15 12 13
4 12 14 4 10 13 15 20 24 23 17 11 19 29 26 22 16 6 2 5 9 14 14 15 15 14 14 16 18 21 20 20 16 12 10 8 8 10 10 10 12 14 13 16
8 9 4 9 14 14 16 17 19 20 20 12 20 20 18 5 5 2 1 5 7 12 16 17 16 16 16 17 17 18 20 20 18 17 12 9 8 10 9 10 10 13 17 15
8 6 6 6 10 9 15 9 14 15 13 8 5 14 32 7 5 3 9 11 13 16 17 17 19 19 17 19 16 18 20 18 16 17 13 16 11 12 10 11 10 12 16 17
15 3 6 7 10 4 11 7 11 16 17 13 6 7 6 4 4 5 10 15 14 15 17 19 20 20 20 20 15 15 18 17 17 15 14 11 14 11 7 10 13 11 12 13
19 1 5 8 3 4 6 6 13 4 2 0 6 8 14 3 2 6 11 13 16 16 18 18 18 19 17 17 11 13 15 14 15 16 16 16 16 14 8 14 13 10 10 10
6 5 3 5 5 5 8 8 6 8 5 7 4 9 14 2 2 5 11 14 14 15 15 17 19 18 17 18 15 13 14 13 12 16 16 16 16 16 17 12 12 13 10 9
0 11 3 3 5 6 3 7 3 7 4 16 10 8 7 5 3 9 11 15 15 16 16 17 18 18 16 18 15 13 16 15 12 13 16 15 15 11 10 13 10 10 11 12
4 9 4 4 3 8 5 4 5 6 1 3 4 8 5 7 12 15 16 17 17 18 17 19 19 17 16 16 15 13 12 12 12 13 14 14 12 13 13 12 14 12 11 11
3 7 3 1 3 3 6 2 5 1 5 7 6 7 7 6 11 14 14 14 15 16 17 17 17 16 15 16 13 12 9 9 8 9 12 12 13 12 14 13 13 12 12 15
2 4 7 4 3 6 4 3 5 5 3 3 7 7 5 4 7 12 13 14 15 16 16 16 16 15 15 16 14 12 10 9 6 6 3 11 9 11 13 12 10 11 9 12
7 1 5 12 5 3 4 6 5 2 5 6 7 16 5 6 6 7 13 14 14 14 15 15 16 15 16 16 16 14 11 10 9 6 10 7 13 8 8 11 11 12 11 10
5 3 4 11 4 2 2 4 5 3 5 12 8 10 4 5 4 7 12 13 14 16 16 16 16 16 17 16 16 16 14 12 10 8 14 12 17 12 9 9 6 8 11 10
9 6 9 12 16 2 6 9 7 5 5 5 13 21 20 11 9 11 11 12 12 13 15 15 16 16 17 17 17 17 15 14 11 11 15 15 15 14 12 10 11 10 5 9
4 9 8 12 16 5 11 16 17 11 15 8 17 5 17 10 6 8 9 11 12 14 16 16 17 16 16 18 17 16 15 14 12 14 14 15 14 12 14 14 13 13 10 7
4 15 4 4 7 6 7 17 13 11 12 14 16 17 2 2 3 7 9 10 11 13 14 15 16 18 17 16 16 16 17 16 14 15 14 12 13 15 14 15 13 14 11 10
7 4 4 4 1 5 10 8 5 3 4 5 3 5 2 3 3 4 7 8 8 11 12 15 15 15 15 16 13 15 15 15 15 16 14 15 15 16 15 13 13 13 11 11
12 9 4 2 2 2 9 3 4 6 6 6 8 6 3 3 2 2 3 5 7 8 10 11 11 13 14 14 15 14 14 15 16 13 13 15 14 13 12 14 13 11 9 10
15 5 3 2 4 7 7 3 4 4 5 4 5 1 1 2 0 2 2 2 4 5 6 6 8 9 12 12 13 11 14 14 14 15 16 14 12 14 14 14 12 10 10 9
3 3 4 3 3 5 7 5 3 3 3 2 3 2 3 2 3 4 2 3 4 5 5 7 8 8 9 11 11 13 13 13 15 14 12 11 11 11 12 10 10 7 7 7
3 1 4 2 1 9 6 6 4 6 7 2 4 5 5 3 3 2 2 2 3 3 6 7 7 7 8 9 8 11 11 13 10 9 9 11 10 11 9 9 7 7 7 8
4 3 3 3 2 8 5 3 5 7 3 2 3 4 4 3 2 2 3 3 2 4 5 5 5 7 8 10 9 10 11 9 9 9 11 11 10 8 7 9 8 8 7 9
4 3 2 7 7 4 6 5 2 4 4 5 3 4 5 6 6 5 4 3 1 1 2 2 3 5 5 7 8 8 9 9 8 7 8 8 7 8 7 8 8 6 7 7
3 3 3 1 3 6 6 4 3 6 5 4 5 5 7 6 7 6 4 4 3 1 1 3 5 6 6 7 7 5 7 8 6 8 8 7 8 7 6 5 5 5 5 5
3 4 4 5 8 4 4 5 5 3 3 5 4 6 8 7 6 6 5 5 3 3 2 2 3 3 4 5 6 6 7 6 5 5 6 7 6 6 6 6 4 4 3 4
5 6 3 3 4 5 6 3 3 5 4 7 6 5 6 8 8 7 6 4 3 3 2 2 2 3 5 5 5 5 5 5 5 6 6 5 5 5 5 5 5 7 10 9
Wind_Direction
48 269 226 232 213 248 271 269 268 273 277 269 269 270 267 279 275 274 296 337 325 313 314 321 332 322 288 262 258 261 263 256 247 246 240 246 252 227 210 202 193 183 176 179
360 245 251 259 253 245 247 260 268 276 277 267 284 276 278 280 267 178 267 307 310 311 315 312 317 312 297 300 288 264 255 256 245 236 234 229 242 218 206 198 179 168 172 172
186 243 304 263 270 264 255 257 272 271 295 288 274 282 273 259 165 159 281 276 297 305 313 314 310 306 299 288 288 280 261 250 247 239 234 229 250 221 199 185 175 177 171 172
238 279 258 268 258 273 277 245 262 284 305 282 67 294 291 290 204 360 344 327 325 322 314 311 306 302 294 288 284 282 267 248 250 241 234 228 228 219 213 192 178 171 168 173
253 228 233 254 250 219 241 329 286 283 280 297 256 229 271 124 231 329 320 322 317 310 310 308 305 300 297 288 280 280 281 247 246 242 228 220 220 218 212 180 173 170 163 162
259 301 218 222 300 250 337 344 315 38 70 359 240 193 288 275 283 301 314 315 314 313 313 305 300 300 299 288 275 284 281 264 249 242 230 216 214 206 188 168 168 162 161 145
310 237 267 203 13 9 50 41 326 348 357 229 283 291 262 167 251 276 313 320 320 317 314 311 311 310 306 308 295 291 279 275 261 243 230 212 214 195 189 183 162 157 154 148
187 322 210 158 184 208 204 156 201 286 276 294 282 240 265 188 183 344 336 323 324 327 325 319 315 311 308 309 302 291 280 275 273 255 234 207 201 191 175 176 164 163 162 149
197 267 256 266 313 128 268 203 206 270 110 3 262 285 262 235 346 344 333 330 334 326 325 324 321 317 316 316 307 298 290 283 276 264 237 197 175 177 162 166 164 155 154 135
218 289 247 64 333 270 170 270 339 281 304 303 280 278 252 311 328 326 324 328 322 322 329 326 325 323 326 327 312 312 317 294 285 281 235 178 157 170 164 158 163 155 161 157
195 207 278 43 229 204 349 318 244 254 150 254 303 263 207 237 289 312 325 333 327 328 329 327 329 332 334 334 330 334 347 332 338 331 358 140 122 153 152 150 150 148 131 147
198 190 252 220 254 225 188 216 230 269 308 253 265 282 183 216 272 329 330 330 331 333 330 333 336 338 349 341 343 347 346 0 359 352 62 72 82 73 132 131 132 136 138 136
185 198 336 330 356 68 118 226 237 336 272 262 269 269 195 263 1 356 334 332 334 338 339 343 344 351 352 349 350 355 354 1 10 25 67 51 80 68 72 81 85 124 133 132
185 179 181 250 262 124 297 274 242 264 255 263 244 280 294 332 349 345 334 335 335 341 346 346 351 353 353 353 358 356 357 5 12 40 60 64 70 70 66 67 68 60 80 125
265 255 210 242 261 258 272 272 276 243 234 240 285 254 295 321 329 330 328 335 348 354 354 351 351 351 355 359 357 358 6 4 17 44 54 54 57 66 66 60 63 64 53 54
217 258 229 271 253 211 274 265 267 244 256 249 267 281 318 295 326 345 347 345 357 355 353 353 352 354 355 1 355 2 3 6 17 40 49 55 66 61 58 57 56 61 55 52
223 217 163 251 338 342 306 247 208 246 203 171 257 247 24 321 335 339 331 342 353 356 355 354 353 349 350 353 2 2 359 8 20 33 33 43 49 54 50 55 56 58 53 57
236 204 162 221 6 327 243 245 190 200 257 234 276 266 229 260 227 257 290 317 341 351 352 347 345 344 348 348 2 2 7 18 26 33 40 43 47 54 53 54 51 50 51 50
214 160 146 191 193 293 303 259 175 120 288 208 235 287 303 326 282 315 284 290 299 328 331 332 331 335 340 354 355 7 19 19 20 25 34 34 35 47 44 44 39 37 52 51
40 213 136 93 140 223 242 270 203 118 337 254 186 219 165 160 23 265 260 285 328 337 330 341 344 350 1 355 356 18 21 22 16 14 21 28 36 50 54 45 39 31 51 54
26 61 200 202 246 286 250 231 173 68 249 234 190 191 172 201 209 209 268 276 256 283 330 351 357 11 2 357 13 32 21 22 354 4 24 33 32 42 38 51 46 43 51 54
187 148 199 102 136 280 175 130 150 216 327 226 223 208 184 160 190 221 243 273 311 349 345 0 5 9 359 3 13 30 30 357 353 7 28 28 21 27 30 47 39 42 50 57
285 201 197 191 215 236 222 218 236 167 185 226 217 202 174 160 189 191 207 214 213 18 349 342 7 4 14 9 21 24 358 355 357 21 29 25 20 28 23 42 39 42 37 50
250 169 235 77 274 233 237 247 200 200 219 220 230 192 168 171 173 187 192 189 163 136 350 346 10 22 13 5 25 26 1 351 9 33 29 26 31 20 24 30 33 43 39 40
248 158 224 251 284 297 293 239 231 235 213 241 188 190 188 167 181 176 197 191 183 145 107 52 27 21 12 358 16 10 5 356 21 32 27 23 24 17 17 19 4 22 352 37
187 213 219 242 284 231 258 255 197 228 222 210 183 186 191 179 180 175 190 189 179 164 96 48 26 10 9 2 359 352 358 9 13 36 26 19 24 18 23 18 3 15 30 35